Find Starlink 30196

NORAD ID: 57448 Int'l Des: 2023-105 Owner: SPXS Country: US Constellation: starlink operational
LEOCIRCULAR

Current View

Loading 3D Globe...

About Starlink 30196

Starlink 30196 (NORAD 57448) is a starlink constellation satellite (v2 mini) launched Jul 24, 2023 by SPXS of US. It operates in LEO, CIRCULAR orbit with a mass of 730.00 kg.

About Starlink 30196

Description loading...

Upcoming Passes

Passes for default location (London). Set your location on the main map for personalized predictions.

Altitude History

Loading altitude history...

Two-Line Element Set

1 57448U 23105U 26170.36414971 .00000397 00000-0 23949-4 0 9990
2 57448 43.0054 48.8744 0001191 275.5515 84.5201 15.27578511160934
Epoch: Jun 19, 2026 • Age: 12 hours

Current Status

Altitude 482.7 km
Velocity 7.63 km/s
Sub-Earth Point 17.53°N, 7.55°W
Launch Date Jul 24, 2023
Age 2.9 years
Type internet

Technical Details

Classification Payload
Mass 730.00 kg
Dry Mass 700.00 kg
Total Mass 730.00 kg
Length 0.30 m
Diameter 4.10 m
Span 29.00 m
Shape Box + pan
Manufacturer SPXS
Bus Type Starlink V2M
Phase Status In Orbit
Owner/State SPXS/US

Most Searched